This is the latest recevied weather packets stored in our database for station/object KF6YUA. If no packets are shown the sender has not sent any weather packets the latest 10 day(s).
| Time | Temp. | Humidity | Pressure | Rain* | Wind** | Luminosity | Snow |
|---|---|---|---|---|---|---|---|
| 1777939023 | 12.78° C | 94% | 1017.4 hPa | 1.27 mm | - | 29 W/m² | - |
| 1777938719 | 12.78° C | 94% | 1017.5 hPa | 0.51 mm | - | 24 W/m² | - |
| 1777938416 | 12.78° C | 94% | 1017.4 hPa | 0 mm | - | 23 W/m² | - |
| 1777938113 | 12.78° C | 93% | 1017.2 hPa | 0.51 mm | - | 35 W/m² | - |
| 1777937809 | 12.78° C | 93% | 1017.6 hPa | 1.27 mm | - | 24 W/m² | - |
| 1777937505 | 12.78° C | 93% | 1017.3 hPa | 1.78 mm | - | 59 W/m² | - |
| 1777937203 | 12.78° C | 92% | 1017.3 hPa | 1.27 mm | - | 51 W/m² | - |
| 1777936900 | 12.78° C | 93% | 1017.6 hPa | 0.51 mm | - | 44 W/m² | - |
| 1777936597 | 12.78° C | 92% | 1017.6 hPa | 0 mm | - | 45 W/m² | - |
| 1777936293 | 12.78° C | 92% | 1017.4 hPa | 0.51 mm | - | 39 W/m² | - |
| 1777935989 | 12.78° C | 92% | 1017.4 hPa | 1.27 mm | - | 33 W/m² | - |
| 1777935688 | 13.33° C | 91% | 1017.6 hPa | 1.78 mm | - | 35 W/m² | - |
| 1777935386 | 13.33° C | 90% | 1017.5 hPa | 1.27 mm | - | 51 W/m² | - |
| 1777935081 | 13.89° C | 89% | 1017.4 hPa | 1.27 mm | - | 84 W/m² | - |
| 1777934778 | 13.89° C | 89% | 1017.4 hPa | 1.27 mm | - | 66 W/m² | - |
| 1777934475 | 13.89° C | 86% | 1017.3 hPa | 0.51 mm | - | 60 W/m² | - |
| 1777934172 | 13.89° C | 86% | 1017.2 hPa | 0 mm | - | 50 W/m² | - |
| 1777933868 | 13.89° C | 86% | 1017.4 hPa | 0 mm | - | 34 W/m² | - |
| 1777933565 | 13.89° C | 85% | 1017.3 hPa | 0 mm | - | 26 W/m² | - |
| 1777933263 | 13.89° C | 85% | 1017.4 hPa | 0 mm | - | 34 W/m² | - |
| 1777932960 | 14.44° C | 85% | 1017.4 hPa | 0 mm | - | 53 W/m² | - |
| 1777932656 | 14.44° C | 83% | 1017.2 hPa | 0 mm | - | 60 W/m² | - |
| 1777932353 | 14.44° C | 82% | 1017 hPa | 0 mm | - | 53 W/m² | - |
| 1777932050 | 15° C | 81% | 1017.1 hPa | 0 mm | - | 65 W/m² | - |
| 1777931746 | 15° C | 80% | 1017.2 hPa | 0 mm | - | 98 W/m² | - |
* Rain latest hour (hover to see other rain measurements)
** Current wind speed in m/s (hover to see current wind gust speed)